| time (UTC) | temp F | wind direction | speed knots | gust knots | rain 1hr in | rain 24hr in | rain mn in | humidity % | barometer mb |
| 20260506111309 | 58 | 177 | 0.0 | 0.0 | 0.01 | 0.27 | 0.02 | 87 | 1005.1 |
| 20260506104307 | 58 | 207 | 0.0 | 2.6 | 0.00 | 0.26 | 0.02 | 86 | 1005.2 |
| 20260506103304 | 58 | 238 | 0.0 | 3.5 | 0.00 | 0.26 | 0.02 | 85 | 1005.1 |
| 20260506102305 | 58 | 217 | 0.9 | 2.6 | 0.00 | 0.26 | 0.02 | 85 | 1005.2 |
| 20260506101301 | 58 | 254 | 0.0 | 4.3 | 0.00 | 0.26 | 0.02 | 86 | 1005.3 |
| 20260506100302 | 58 | 240 | 0.0 | 3.5 | 0.00 | 0.26 | 0.02 | 87 | 1005.2 |
| 20260506095305 | 58 | 186 | 0.0 | 0.0 | 0.00 | 0.26 | 0.02 | 90 | 1005.1 |
| 20260506094303 | 57 | 186 | 0.9 | 2.6 | 0.00 | 0.26 | 0.02 | 89 | 1005.2 |
| 20260506093303 | 57 | 199 | 0.0 | 2.6 | 0.00 | 0.26 | 0.02 | 89 | 1005.1 |
| 20260506090302 | 58 | 165 | 0.0 | 3.5 | 0.00 | 0.26 | 0.02 | 90 | 1004.9 |
| 20260506085301 | 58 | 163 | 0.0 | 1.7 | 0.00 | 0.27 | 0.02 | 91 | 1004.9 |
| 20260506084301 | 57 | 162 | 0.0 | 1.7 | 0.00 | 0.27 | 0.02 | 92 | 1004.9 |
| 20260506082306 | 56 | 241 | 0.9 | 4.3 | 0.00 | 0.27 | 0.02 | 93 | 1004.8 |
| 20260506081301 | 56 | 185 | 0.0 | 2.6 | 0.00 | 0.27 | 0.02 | 94 | 1004.8 |
| 20260506080301 | 56 | 187 | 0.9 | 2.6 | 0.00 | 0.27 | 0.02 | 94 | 1004.8 |
| 20260506073305 | 55 | 248 | 0.0 | 2.6 | 0.00 | 0.27 | 0.02 | 94 | 1004.9 |
| 20260506072305 | 55 | 252 | 0.9 | 3.5 | 0.00 | 0.27 | 0.02 | 93 | 1004.7 |
| 20260506071302 | 55 | 161 | 0.0 | 3.5 | 0.00 | 0.27 | 0.02 | 93 | 1004.8 |
| 20260506070301 | 55 | 149 | 0.9 | 3.5 | 0.00 | 0.27 | 0.02 | 93 | 1004.6 |
| 20260506062305 | 54 | 225 | 0.0 | 1.7 | 0.00 | 0.27 | 0.02 | 92 | 1004.6 |
| 20260506061300 | 54 | 231 | 0.0 | 1.7 | 0.00 | 0.27 | 0.02 | 92 | 1004.5 |
| 20260506060301 | 54 | 237 | 0.0 | 0.9 | 0.00 | 0.27 | 0.02 | 92 | 1004.5 |
| 20260506050314 | 53 | 247 | 0.9 | 2.6 | 0.00 | 0.27 | 0.02 | 92 | 1004.7 |
| 20260506043302 | 53 | 250 | 0.0 | 0.0 | 0.02 | 0.26 | 0.02 | 92 | 1004.7 |
| 20260506042301 | 53 | 250 | 0.0 | 0.0 | 0.02 | 0.26 | 0.02 | 92 | 1004.7 |
| 20260506041301 | 53 | 250 | 0.0 | 0.0 | 0.02 | 0.26 | 0.02 | 92 | 1004.7 |
| 20260506040303 | 53 | 250 | 0.0 | 0.0 | 0.02 | 0.26 | 0.02 | 93 | 1004.7 |
| 20260506035306 | 53 | 250 | 0.0 | 0.0 | 0.00 | 0.25 | 0.00 | 93 | 1004.7 |
| 20260506034301 | 53 | 250 | 0.0 | 0.0 | 0.00 | 0.25 | 0.00 | 92 | 1004.7 |
| 20260506033303 | 53 | 250 | 0.0 | 0.0 | 0.00 | 0.25 | 0.00 | 93 | 1004.7 |
| 20260506030304 | 53 | 252 | 0.9 | 3.5 | 0.00 | 0.25 | 0.00 | 92 | 1004.8 |
| 20260506025305 | 53 | 248 | 0.0 | 1.7 | 0.00 | 0.25 | 0.00 | 92 | 1004.8 |
| 20260506023301 | 53 | 250 | 0.0 | 0.0 | 0.00 | 0.25 | 0.00 | 92 | 1004.9 |
| 20260506021301 | 53 | 250 | 0.0 | 2.6 | 0.00 | 0.25 | 0.00 | 91 | 1004.8 |
| 20260506020303 | 54 | 146 | 0.0 | 0.0 | 0.00 | 0.25 | 0.00 | 91 | 1005.0 |
| 20260506015306 | 54 | 146 | 0.0 | 0.0 | 0.00 | 0.25 | 0.00 | 91 | 1005.2 |
| 20260506014303 | 54 | 146 | 0.0 | 0.0 | 0.00 | 0.25 | 0.00 | 91 | 1005.2 |
| 20260506013303 | 54 | 146 | 0.0 | 0.0 | 0.00 | 0.25 | 0.00 | 91 | 1005.2 |
| 20260506012308 | 54 | 146 | 0.0 | 0.0 | 0.00 | 0.25 | 0.00 | 91 | 1005.2 |
| 20260506011301 | 54 | 146 | 0.0 | 0.0 | 0.00 | 0.25 | 0.00 | 91 | 1005.2 |
| 20260506010304 | 54 | 146 | 0.0 | 0.0 | 0.00 | 0.25 | 0.00 | 91 | 1005.2 |
| 20260506005305 | 54 | 146 | 0.0 | 0.0 | 0.00 | 0.25 | 0.00 | 91 | 1005.2 |
| 20260506004300 | 53 | 146 | 0.0 | 0.0 | 0.00 | 0.25 | 0.00 | 91 | 1005.3 |
| 20260506003303 | 53 | 146 | 0.0 | 0.0 | 0.00 | 0.25 | 0.00 | 91 | 1005.3 |
| 20260506002301 | 53 | 146 | 0.0 | 0.0 | 0.00 | 0.25 | 0.00 | 91 | 1005.3 |
| 20260506001301 | 54 | 146 | 0.0 | 0.0 | 0.00 | 0.25 | 0.00 | 91 | 1005.3 |
| 20260506000302 | 54 | 146 | 0.0 | 0.0 | 0.00 | 0.25 | 0.00 | 91 | 1005.4 |
| 20260505235313 | 54 | 146 | 0.0 | 0.0 | 0.00 | 0.25 | 0.00 | 91 | 1005.6 |
| 20260505234301 | 54 | 146 | 0.0 | 0.0 | 0.00 | 0.25 | 0.00 | 91 | 1005.6 |
| 20260505233304 | 54 | 146 | 0.0 | 0.0 | 0.00 | 0.25 | 0.00 | 91 | 1005.7 |
| 20260505232306 | 54 | 146 | 0.0 | 0.0 | 0.00 | 0.25 | 0.00 | 91 | 1005.8 |
| 20260505231302 | 55 | 146 | 0.0 | 0.0 | 0.00 | 0.25 | 0.00 | 91 | 1005.9 |
| 20260505230302 | 55 | 146 | 0.0 | 0.0 | 0.00 | 0.25 | 0.00 | 91 | 1006.0 |
| 20260505225305 | 55 | 146 | 0.0 | 0.0 | 0.00 | 0.26 | 0.00 | 91 | 1006.0 |
| 20260505224301 | 55 | 146 | 0.0 | 0.0 | 0.00 | 0.27 | 0.00 | 91 | 1006.0 |
| 20260505222306 | 55 | 146 | 0.0 | 0.0 | 0.00 | 0.28 | 0.00 | 91 | 1006.2 |
| 20260505221305 | 55 | 146 | 0.0 | 0.0 | 0.00 | 0.28 | 0.00 | 91 | 1006.2 |
| 20260505220304 | 55 | 146 | 0.0 | 0.0 | 0.01 | 0.31 | 0.00 | 91 | 1006.2 |
| 20260505215308 | 55 | 146 | 0.0 | 0.0 | 0.01 | 0.33 | 0.31 | 91 | 1006.3 |
| 20260505214305 | 55 | 146 | 0.0 | 0.0 | 0.01 | 0.33 | 0.31 | 91 | 1006.4 |
| 20260505211304 | 56 | 146 | 0.0 | 0.0 | 0.02 | 0.33 | 0.31 | 92 | 1006.5 |
| 20260505204305 | 56 | 146 | 0.0 | 0.0 | 0.04 | 0.31 | 0.31 | 92 | 1006.7 |
| 20260505203301 | 56 | 146 | 0.0 | 0.0 | 0.03 | 0.31 | 0.30 | 92 | 1006.8 |
| 20260505201306 | 56 | 146 | 0.0 | 0.0 | 0.04 | 0.32 | 0.30 | 92 | 1006.8 |
| 20260505195301 | 56 | 146 | 0.0 | 0.0 | 0.02 | 0.29 | 0.28 | 92 | 1006.6 |
| 20260505194306 | 57 | 146 | 0.0 | 0.0 | 0.02 | 0.29 | 0.27 | 92 | 1006.7 |
| 20260505193305 | 57 | 146 | 0.0 | 0.0 | 0.02 | 0.29 | 0.27 | 92 | 1006.5 |
| 20260505191301 | 57 | 146 | 0.0 | 0.0 | 0.02 | 0.29 | 0.26 | 92 | 1006.6 |
| 20260505190302 | 57 | 146 | 0.0 | 0.0 | 0.03 | 0.29 | 0.26 | 93 | 1006.5 |
| 20260505185304 | 58 | 146 | 0.0 | 0.0 | 0.02 | 0.26 | 0.25 | 92 | 1006.6 |
| 20260505184303 | 58 | 146 | 0.0 | 0.0 | 0.03 | 0.26 | 0.25 | 92 | 1006.6 |
| 20260505183302 | 58 | 146 | 0.0 | 0.0 | 0.02 | 0.26 | 0.24 | 93 | 1006.6 |
| 20260505182321 | 58 | 146 | 0.0 | 0.0 | 0.02 | 0.26 | 0.24 | 93 | 1006.6 |
| 20260505181301 | 58 | 146 | 0.0 | 0.0 | 0.02 | 0.26 | 0.24 | 93 | 1006.6 |
| 20260505180303 | 58 | 146 | 0.0 | 0.0 | 0.02 | 0.26 | 0.23 | 93 | 1006.6 |
| 20260505175305 | 58 | 146 | 0.0 | 0.0 | 0.02 | 0.24 | 0.23 | 93 | 1006.6 |
| 20260505174301 | 58 | 146 | 0.0 | 0.0 | 0.02 | 0.24 | 0.22 | 93 | 1006.6 |
| 20260505173300 | 58 | 146 | 0.0 | 0.0 | 0.02 | 0.24 | 0.22 | 93 | 1006.6 |
| 20260505172305 | 58 | 146 | 0.0 | 0.0 | 0.03 | 0.24 | 0.21 | 93 | 1006.6 |
| 20260505171301 | 58 | 146 | 0.0 | 0.0 | 0.04 | 0.24 | 0.21 | 93 | 1006.7 |
| 20260505170305 | 58 | 146 | 0.0 | 0.0 | 0.06 | 0.24 | 0.20 | 93 | 1006.8 |
| 20260505165306 | 58 | 146 | 0.0 | 0.0 | 0.06 | 0.18 | 0.20 | 93 | 1006.8 |
| 20260505164301 | 58 | 146 | 0.0 | 0.0 | 0.07 | 0.18 | 0.20 | 93 | 1006.9 |
| 20260505163302 | 58 | 146 | 0.0 | 0.0 | 0.08 | 0.18 | 0.20 | 93 | 1006.9 |
| 20260505162301 | 58 | 146 | 0.9 | 1.7 | 0.08 | 0.18 | 0.19 | 93 | 1007.0 |
| 20260505161302 | 59 | 146 | 0.0 | 0.9 | 0.07 | 0.18 | 0.17 | 93 | 1007.0 |
| 20260505160303 | 59 | 146 | 0.0 | 2.6 | 0.06 | 0.18 | 0.15 | 92 | 1007.0 |
| 20260505153304 | 60 | 229 | 0.9 | 1.7 | 0.05 | 0.13 | 0.12 | 91 | 1007.0 |
| 20260505150305 | 61 | 264 | 0.0 | 1.7 | 0.02 | 0.14 | 0.09 | 90 | 1006.9 |
| 20260505130304 | 66 | 86 | 0.0 | 2.6 | 0.00 | 0.35 | 0.07 | 70 | 1007.2 |
| 20260505124301 | 67 | 86 | 0.9 | 11.3 | 0.00 | 0.35 | 0.07 | 71 | 1007.4 |
| 20260505123307 | 67 | 30 | 2.6 | 5.2 | 0.00 | 0.35 | 0.07 | 64 | 1007.4 |
| 20260505122301 | 68 | 148 | 1.7 | 3.5 | 0.00 | 0.35 | 0.07 | 70 | 1007.5 |
| 20260505121304 | 67 | 152 | 0.9 | 2.6 | 0.00 | 0.35 | 0.07 | 71 | 1007.6 |
| 20260505120304 | 67 | 146 | 0.0 | 1.7 | 0.00 | 0.35 | 0.07 | 72 | 1007.8 |
| 20260505115305 | 66 | 142 | 0.0 | 2.6 | 0.00 | 0.35 | 0.07 | 66 | 1007.8 |
| 20260505114304 | 66 | 140 | 0.0 | 3.5 | 0.00 | 0.35 | 0.07 | 68 | 1008.0 |
| 20260505113305 | 66 | 66 | 0.0 | 3.5 | 0.00 | 0.35 | 0.07 | 72 | 1008.1 |
| 20260505112301 | 66 | 76 | 0.0 | 3.5 | 0.00 | 0.35 | 0.07 | 64 | 1008.4 |